TimeEDT,TemperatureF,Dew PointF,Humidity,Sea Level PressureIn,VisibilityMPH,Wind Direction,Wind SpeedMPH,Gust SpeedMPH,PrecipitationIn,Events,Conditions,WindDirDegrees,DateUTC
12:53 AM,45.0,42.1,90,30.37,10.0,Calm,Calm,-,N/A,,Clear,0,2013-10-09 04:53:00
1:53 AM,46.9,43.0,86,30.37,10.0,Calm,Calm,-,N/A,,Clear,0,2013-10-09 05:53:00
2:53 AM,48.9,41.0,74,30.38,10.0,NNE,4.6,-,N/A,,Clear,30,2013-10-09 06:53:00
3:53 AM,46.9,41.0,80,30.38,10.0,NNE,4.6,-,N/A,,Clear,20,2013-10-09 07:53:00
4:53 AM,46.9,41.0,80,30.39,10.0,NNE,5.8,-,N/A,,Clear,20,2013-10-09 08:53:00
5:53 AM,46.0,41.0,83,30.39,10.0,NNE,6.9,-,N/A,,Clear,20,2013-10-09 09:53:00
6:53 AM,45.0,39.9,82,30.41,10.0,NNE,3.5,-,N/A,,Clear,30,2013-10-09 10:53:00
7:53 AM,46.0,39.9,79,30.43,10.0,North,5.8,-,N/A,,Clear,10,2013-10-09 11:53:00
8:53 AM,50.0,41.0,71,30.43,10.0,North,10.4,-,N/A,,Clear,10,2013-10-09 12:53:00
9:53 AM,52.0,42.1,69,30.44,10.0,NNE,6.9,-,N/A,,Clear,20,2013-10-09 13:53:00
10:53 AM,55.9,42.1,60,30.44,10.0,NNE,9.2,-,N/A,,Clear,30,2013-10-09 14:53:00
11:53 AM,59.0,44.1,58,30.42,10.0,NNE,9.2,-,N/A,,Clear,20,2013-10-09 15:53:00
12:53 PM,62.1,44.1,52,30.41,10.0,NNE,4.6,-,N/A,,Clear,30,2013-10-09 16:53:00
1:53 PM,63.0,43.0,48,30.38,10.0,Variable,3.5,-,N/A,,Clear,0,2013-10-09 17:53:00
2:53 PM,64.9,41.0,42,30.37,10.0,North,8.1,-,N/A,,Clear,360,2013-10-09 18:53:00
3:53 PM,64.9,43.0,45,30.36,10.0,East,4.6,-,N/A,,Clear,80,2013-10-09 19:53:00
4:53 PM,64.0,44.1,48,30.35,10.0,ENE,4.6,-,N/A,,Clear,60,2013-10-09 20:53:00
5:53 PM,61.0,43.0,52,30.35,10.0,NNE,5.8,-,N/A,,Clear,30,2013-10-09 21:53:00
6:53 PM,57.9,42.1,56,30.35,10.0,Variable,3.5,-,N/A,,Clear,0,2013-10-09 22:53:00
7:53 PM,57.0,42.1,57,30.34,10.0,Calm,Calm,-,N/A,,Clear,0,2013-10-09 23:53:00
8:53 PM,55.9,42.1,60,30.35,10.0,NE,4.6,-,N/A,,Clear,40,2013-10-10 00:53:00
9:53 PM,54.0,43.0,66,30.35,10.0,Calm,Calm,-,N/A,,Clear,0,2013-10-10 01:53:00
10:53 PM,51.1,44.1,77,30.35,10.0,NW,3.5,-,N/A,,Clear,320,2013-10-10 02:53:00
11:53 PM,51.1,44.1,77,30.34,10.0,Calm,Calm,-,N/A,,Clear,0,2013-10-10 03:53:00